When you browse on this site, cookies collect data to enhance your experience and personalize the content and advertising you see.
Visit our Privacy Policy to learn more. By continuing to use the site, you agree to this use of cookies and data.
  • în România
  • Lista ţărilor
  • Pe 7 zile
  • Temperatura apei
  • Hartă satelitară
  • Meteo pe hartă
  • Widget-uri
  • user-avatar
    Intrare

    Meteo pe oră la Carlisle

    Astăzi, 18 Decembrie, Marţi

    Timp Temperatura Precipitaţii Vânt Presiune Umiditate
    00:00 +7°C° 0 mm 8 m/s 752 mmHg 90%
    01:00 +7°C° 0.1 mm 8 m/s 752 mmHg 89%
    02:00 +7°C° 0.1 mm 8 m/s 751 mmHg 88%
    03:00 +9°C° 0.1 mm 8 m/s 751 mmHg 87%
    04:00 +8°C° 0.1 mm 9 m/s 750 mmHg 86%
    05:00 +8°C° 0.1 mm 9 m/s 749 mmHg 85%
    06:00 +8°C° 0.1 mm 9 m/s 749 mmHg 84%
    07:00 +8°C° 0.2 mm 10 m/s 748 mmHg 84%
    08:00 +8°C° 0.2 mm 10 m/s 747 mmHg 83%
    09:00 +8°C° 0.2 mm 11 m/s 746 mmHg 83%
    10:00 +8°C° 0.8 mm 11 m/s 746 mmHg 83%
    11:00 +8°C° 0.8 mm 11 m/s 745 mmHg 83%
    12:00 +8°C° 0.8 mm 11 m/s 745 mmHg 83%
    13:00 +7°C° 1.1 mm 10 m/s 745 mmHg 84%
    14:00 +7°C° 1.1 mm 9 m/s 745 mmHg 86%
    15:00 +7°C° 1.1 mm 8 m/s 744 mmHg 87%
    16:00 +8°C° 0.9 mm 7 m/s 744 mmHg 88%
    17:00 +8°C° 0.9 mm 6 m/s 744 mmHg 88%
    18:00 +7°C° 0.9 mm 5 m/s 744 mmHg 89%
    19:00 +7°C° 0.2 mm 5 m/s 744 mmHg 89%
    20:00 +7°C° 0.2 mm 4 m/s 744 mmHg 89%
    21:00 +7°C° 0.2 mm 4 m/s 745 mmHg 89%
    22:00 +6°C° 0.1 mm 4 m/s 745 mmHg 89%
    23:00 +6°C° 0.1 mm 4 m/s 745 mmHg 90%

    Mâine, 19 Decembrie, Miercuri

    Timp Temperatura Precipitaţii Vânt Presiune Umiditate
    00:00 +5°C° 0.1 mm 4 m/s 745 mmHg 91%
    01:00 +5°C° 0.1 mm 4 m/s 746 mmHg 91%
    02:00 +5°C° 0.1 mm 4 m/s 746 mmHg 91%
    03:00 +5°C° 0.1 mm 4 m/s 746 mmHg 91%
    04:00 +5°C° 0 mm 4 m/s 746 mmHg 90%
    05:00 +4°C° 0 mm 4 m/s 746 mmHg 90%
    06:00 +4°C° 0 mm 4 m/s 747 mmHg 89%
    07:00 +4°C° 0 mm 4 m/s 747 mmHg 89%
    08:00 +4°C° 0 mm 4 m/s 747 mmHg 89%
    09:00 +4°C° 0 mm 4 m/s 747 mmHg 89%
    10:00 +5°C° 0.1 mm 5 m/s 747 mmHg 86%
    11:00 +6°C° 0.1 mm 5 m/s 747 mmHg 84%
    12:00 +5°C° 0.1 mm 6 m/s 747 mmHg 82%
    13:00 +6°C° 0.1 mm 5 m/s 747 mmHg 83%
    14:00 +6°C° 0.1 mm 5 m/s 746 mmHg 83%
    15:00 +6°C° 0.1 mm 5 m/s 746 mmHg 84%
    16:00 +5°C° 0.3 mm 5 m/s 746 mmHg 85%
    17:00 +5°C° 0.3 mm 5 m/s 746 mmHg 86%
    18:00 +5°C° 0.3 mm 5 m/s 745 mmHg 87%
    19:00 +5°C° 0.3 mm 5 m/s 745 mmHg 88%
    20:00 +5°C° 0.3 mm 5 m/s 745 mmHg 89%
    21:00 +5°C° 0.3 mm 5 m/s 745 mmHg 90%
    22:00 +5°C° 0.1 mm 4 m/s 745 mmHg 90%
    23:00 +5°C° 0.1 mm 4 m/s 745 mmHg 91%

    Poimâine, 20 Decembrie, Joi

    Timp Temperatura Precipitaţii Vânt Presiune Umiditate
    00:00 +5°C° 0.1 mm 4 m/s 745 mmHg 91%
    01:00 +5°C° 0.2 mm 4 m/s 745 mmHg 91%
    02:00 +5°C° 0.2 mm 4 m/s 745 mmHg 91%
    03:00 +5°C° 0.2 mm 4 m/s 745 mmHg 91%
    04:00 +5°C° 0.2 mm 4 m/s 745 mmHg 91%
    05:00 +5°C° 0.2 mm 4 m/s 745 mmHg 92%
    06:00 +5°C° 0.2 mm 4 m/s 745 mmHg 92%
    07:00 +5°C° 0.1 mm 4 m/s 746 mmHg 91%
    08:00 +5°C° 0.1 mm 4 m/s 746 mmHg 90%
    09:00 +6°C° 0.1 mm 5 m/s 747 mmHg 89%
    10:00 +6°C° 0.3 mm 5 m/s 747 mmHg 87%
    11:00 +5°C° 0.3 mm 6 m/s 748 mmHg 85%
    12:00 +7°C° 0.3 mm 6 m/s 748 mmHg 83%
    13:00 +5°C° 0.2 mm 6 m/s 748 mmHg 83%
    14:00 +5°C° 0.2 mm 6 m/s 748 mmHg 84%
    15:00 +5°C° 0.2 mm 6 m/s 749 mmHg 84%
    16:00 +6°C° 0.2 mm 5 m/s 749 mmHg 85%
    17:00 +5°C° 0.2 mm 5 m/s 749 mmHg 86%
    18:00 +5°C° 0.2 mm 5 m/s 749 mmHg 87%
    19:00 +5°C° 0 mm 4 m/s 750 mmHg 88%
    20:00 +4°C° 0 mm 4 m/s 750 mmHg 89%
    21:00 +4°C° 0 mm 3 m/s 750 mmHg 90%
    22:00 +4°C° 0 mm 3 m/s 749 mmHg 91%
    23:00 +4°C° 0 mm 3 m/s 749 mmHg 92%

    21 Decembrie, Vineri

    Timp Temperatura Precipitaţii Vânt Presiune Umiditate
    00:00 +5°C° 0 mm 2 m/s 748 mmHg 93%
    01:00 +4°C° 0.2 mm 3 m/s 747 mmHg 93%
    02:00 +4°C° 0.2 mm 3 m/s 746 mmHg 93%
    03:00 +4°C° 0.2 mm 3 m/s 745 mmHg 93%
    04:00 +4°C° 1.6 mm 4 m/s 743 mmHg 92%
    05:00 +4°C° 1.6 mm 4 m/s 742 mmHg 92%
    06:00 +3°C° 1.6 mm 5 m/s 741 mmHg 92%
    07:00 +5°C° 0.8 mm 5 m/s 741 mmHg 92%
    08:00 +5°C° 0.8 mm 5 m/s 740 mmHg 92%
    09:00 +6°C° 0.8 mm 5 m/s 740 mmHg 93%
    10:00 +5°C° 0.3 mm 6 m/s 741 mmHg 90%
    11:00 +6°C° 0.3 mm 8 m/s 741 mmHg 88%
    12:00 +6°C° 0.3 mm 9 m/s 742 mmHg 85%
    13:00 +6°C° 0.1 mm 9 m/s 743 mmHg 82%
    14:00 +6°C° 0.1 mm 9 m/s 743 mmHg 78%
    15:00 +6°C° 0.1 mm 9 m/s 744 mmHg 75%
    16:00 +6°C° 0.1 mm 9 m/s 744 mmHg 76%
    17:00 +6°C° 0.1 mm 9 m/s 744 mmHg 77%
    18:00 +5°C° 0.1 mm 8 m/s 745 mmHg 79%
    19:00 +5°C° 0 mm 8 m/s 745 mmHg 80%
    20:00 +5°C° 0 mm 8 m/s 745 mmHg 81%
    21:00 +5°C° 0 mm 8 m/s 745 mmHg 82%
    22:00 +5°C° 0.1 mm 7 m/s 745 mmHg 83%
    23:00 +5°C° 0.1 mm 7 m/s 745 mmHg 85%

    22 Decembrie, Sâmbătă

    Timp Temperatura Precipitaţii Vânt Presiune Umiditate
    00:00 +5°C° 0.1 mm 7 m/s 745 mmHg 86%
    01:00 +5°C° 0.1 mm 7 m/s 746 mmHg 86%
    02:00 +5°C° 0.1 mm 6 m/s 746 mmHg 86%
    03:00 +4°C° 0.1 mm 6 m/s 746 mmHg 87%
    04:00 +4°C° 0 mm 6 m/s 747 mmHg 86%
    05:00 +4°C° 0 mm 6 m/s 747 mmHg 86%
    06:00 +4°C° 0 mm 6 m/s 748 mmHg 85%
    07:00 +4°C° 0 mm 6 m/s 748 mmHg 85%
    08:00 +4°C° 0 mm 6 m/s 749 mmHg 84%
    09:00 +4°C° 0 mm 6 m/s 750 mmHg 84%
    10:00 +4°C° 0 mm 7 m/s 750 mmHg 81%
    11:00 +5°C° 0 mm 7 m/s 751 mmHg 79%
    12:00 +5°C° 0 mm 8 m/s 752 mmHg 76%
    13:00 +5°C° 0 mm 8 m/s 752 mmHg 76%
    14:00 +5°C° 0 mm 7 m/s 753 mmHg 76%
    15:00 +5°C° 0 mm 7 m/s 753 mmHg 77%
    16:00 +5°C° 0 mm 7 m/s 754 mmHg 79%
    17:00 +4°C° 0 mm 6 m/s 754 mmHg 81%
    18:00 +4°C° 0 mm 6 m/s 755 mmHg 83%
    19:00 +4°C° 0 mm 6 m/s 755 mmHg 84%
    20:00 +4°C° 0 mm 6 m/s 755 mmHg 84%
    21:00 +4°C° 0 mm 6 m/s 756 mmHg 85%
    22:00 +4°C° 0 mm 6 m/s 756 mmHg 85%
    23:00 +4°C° 0 mm 6 m/s 756 mmHg 86%

    23 Decembrie, Duminică

    Timp Temperatura Precipitaţii Vânt Presiune Umiditate
    00:00 +4°C° 0 mm 6 m/s 756 mmHg 86%
    01:00 +5°C° 0 mm 5 m/s 757 mmHg 87%
    02:00 +5°C° 0 mm 5 m/s 757 mmHg 87%
    03:00 +5°C° 0 mm 5 m/s 757 mmHg 87%
    04:00 +5°C° 0 mm 5 m/s 757 mmHg 88%
    05:00 +5°C° 0 mm 5 m/s 757 mmHg 89%
    06:00 +5°C° 0 mm 4 m/s 757 mmHg 90%
    07:00 +5°C° 0 mm 4 m/s 757 mmHg 91%
    08:00 +5°C° 0 mm 3 m/s 758 mmHg 92%
    09:00 +5°C° 0 mm 3 m/s 758 mmHg 93%
    10:00 +6°C° 0 mm 2 m/s 758 mmHg 92%
    11:00 +7°C° 0 mm 2 m/s 758 mmHg 92%
    12:00 +7°C° 0 mm 2 m/s 758 mmHg 91%
    13:00 +7°C° 0 mm 2 m/s 758 mmHg 92%
    14:00 +7°C° 0 mm 2 m/s 758 mmHg 93%
    15:00 +7°C° 0 mm 2 m/s 757 mmHg 94%
    16:00 +7°C° 0.2 mm 2 m/s 757 mmHg 94%
    17:00 +7°C° 0.2 mm 2 m/s 757 mmHg 94%
    18:00 +7°C° 0.2 mm 2 m/s 756 mmHg 94%
    19:00 +7°C° 0.4 mm 2 m/s 756 mmHg 94%
    20:00 +7°C° 0.4 mm 2 m/s 756 mmHg 94%
    21:00 +7°C° 0.4 mm 2 m/s 756 mmHg 94%
    22:00 +7°C° 0.2 mm 2 m/s 756 mmHg 94%
    23:00 +7°C° 0.2 mm 2 m/s 756 mmHg 94%
    Arată mai mult